Regional Weather Roundup
Issued by NWS

Home | Current Version | Previous Version | Graphics & Text | Print | Product List | Glossary On
Versions: 1 2 3 4 5 6 7 8 9 10 11 12 13 14 15 16 17 18 19 20 21 22 23 24 25 26 27 28 29 30 31 32 33 34 35 36 37 38 39 40 41 42 43 44 45 46 47 48 49 50
000
ASUS43 KMPX 250501
RWRMN
WEATHER ROUNDUP FOR MINNESOTA
NATIONAL WEATHER SERVICE TWIN CITIES/CHANHASSEN MN
1200 AM CDT SAT APR 25 2015


NOTE: "FAIR" INDICATES FEW OR NO CLOUDS BELOW 12,000 FEET WITH NO
SIGNIFICANT WEATHER AND/OR OBSTRUCTIONS TO VISIBILITY. N/A MEANS
CURRENT SKY AND/OR WEATHER CONDITIONS ARE NOT AVAILABLE.

MNZ060>063-068>070-250600-
   Twin Cities Metro

CITY           SKY/WX    TMP DP  RH WIND       PRES   REMARKS
TWIN CITIES    CLOUDY    44  40  85 E17       29.81F
ST PAUL        CLOUDY    45  39  79 SE16      29.83F
CRYSTAL        CLOUDY    46  39  76 SE13G22   29.80F
BLAINE         CLOUDY    48  39  71 E16       29.81F
LAKEVILLE      CLOUDY    43  39  87 E15       29.79F
EDEN PRAIRIE   CLOUDY    44  40  85 E13G23    29.78F
SOUTH ST PAUL  CLOUDY    45  40  85 SE8G16    29.82F
LAKE ELMO      CLOUDY    45  37  76 E14G21    29.84F
$$
MNZ001>005-007-008-013>017-022>024-027-028-250600-
   Northwest Minnesota

CITY           SKY/WX    TMP DP  RH WIND       PRES   REMARKS
BEMIDJI        CLOUDY    40  30  67 E12G17    29.84F
HALLOCK        MOCLDY    43  32  65 E7        29.85R
ROSEAU         CLOUDY    41  34  75 E8        29.87S
WARROAD        CLOUDY    37  30  75 E8        29.89S
THIEF RVR FALL CLOUDY    43  32  65 E9        29.85R
CROOKSTON      CLOUDY    45  34  65 E7        29.84R
FOSSTON        CLOUDY    41  30  65 E7        29.83R
DETROIT LAKES  CLOUDY    43  32  65 SE10G17   29.80S
MOORHEAD       CLOUDY    46  37  71 E5        29.80S
PARK RAPIDS    CLOUDY    41  31  67 E9        29.82R
MAHNOMEN       CLOUDY    42  32  66 E8        29.81S
$$
MNZ006-009>011-018-025>026-250600-
   North Central Minnesota

CITY           SKY/WX    TMP DP  RH WIND       PRES   REMARKS
BAUDETTE       CLOUDY    40  24  53 E12       29.88F
FLAG ISLAND    CLOUDY    39  25  56 E7        29.90S
INTL FALLS     CLOUDY    39  21  48 E7        29.92S
WASKISH        CLOUDY    41  30  65 CALM      29.87S
BIG FORK       CLOUDY    39  25  56 E6        29.89F
LONGVILLE      CLOUDY    39  30  70 E6        29.85S
GRAND RAPIDS   CLOUDY    37  23  56 E7        29.89R
CRANE LAKE     CLOUDY    36  16  44 CALM      29.97S
ORR            CLOUDY    37  16  41 CALM      29.90S
COOK           CLOUDY    36  16  44 E5        29.92F
WALKER         CLOUDY    40  31  70 E7        29.85R
$$
MNZ012-019>021-037-250600-
   Northeast Minnesota

CITY           SKY/WX    TMP DP  RH WIND       PRES   REMARKS
DULUTH         CLOUDY    36  24  62 E13G22    29.91S
ELY            CLOUDY    36  16  44 E7        29.94F
HIBBING        CLOUDY    37  17  44 E9        29.91S
EVELETH        CLOUDY    36  19  51 E8        29.92S
DULUTH HARBOR  CLOUDY    36  32  87 NE18      29.96R
TWO HARBORS    CLOUDY    39  27  60 NE14G20   29.92F
SILVER BAY     CLOUDY    36  23  60 N8        29.94F
GRAND MARAIS     N/A     36  20  52 NE9       30.03F
G MARAIS ARPRT CLOUDY    30   9  40 E7        29.99S WCI  23
$$
MNZ029>031-032-039>041-046>048-054>057-064-250600-
   West Central Minnesota

CITY           SKY/WX    TMP DP  RH WIND       PRES   REMARKS
FERGUS FALLS   CLOUDY    45  37  76 SE14      29.79R
WHEATON        CLOUDY    41  39  93 E16       29.77S FOG
MORRIS         CLOUDY    43  43 100 E14       29.74S FOG
ALEXANDRIA     LGT RAIN  42  40  92 SE13      29.79R FOG
ELBOW LAKE     CLOUDY    42  41  96 SE13G18   29.76R FOG
WADENA         CLOUDY    39  32  75 E9        29.79S
GLENWOOD       CLOUDY    43  39  87 E14       29.78R FOG
APPLETON       CLOUDY    46  39  76 E16       29.74R
BENSON         CLOUDY    43  39  87 SE12      29.75F FOG
ORTONVILLE     CLOUDY    45  39  81 E17       29.73S
MADISON        LGT RAIN  45  41  87 E10       29.73R
WILLMAR        CLOUDY    45  41  87 E15       29.77
$$
MNZ033>034-036-042>043-049>051-058-059-250600-
   Central Minnesota

CITY           SKY/WX    TMP DP  RH WIND       PRES   REMARKS
ST CLOUD       CLOUDY    44  38  79 E8        29.79F
SAUK CENTRE    CLOUDY    42  39  91 E9G18     29.79R
PAYNESVILLE    CLOUDY    40  39  95 NE10G20   29.79R
AITKIN         CLOUDY    39  30  70 E8        29.84F
PINE RIVER     CLOUDY    39  34  81 E12       29.87F
BRAINERD       CLOUDY    40  32  73 E5        29.83F
STAPLES        CLOUDY    41  30  65 E7        29.80S
LONG PRAIRIE   CLOUDY    41  37  87 E10       29.79S
LITTLE FALLS   MOCLDY    43  36  75 E8        29.80F
LITCHFIELD     CLOUDY    45  43  93 E15       29.77S
BUFFALO        CLOUDY    44  39  83 E10G17    29.80F
MAPLE LAKE     CLOUDY    45  41  86 E12G17    29.80S
$$
MNZ037-044-045-052-053-250600-
   East Central Minnesota

CITY           SKY/WX    TMP DP  RH WIND       PRES   REMARKS
PRINCETON      CLOUDY    46  39  76 E10       29.81F
MORA           CLOUDY    41  30  65 E6        29.85F
CAMBRIDGE      CLOUDY    48  36  61 E7        29.81F
RUSH CITY      CLOUDY    46  33  60 SE7       29.84F
MOOSE LAKE     CLOUDY    34  30  86 CALM      29.87S
HINCKLEY       CLOUDY    43  32  65 E9        29.86S
CLOQUET        CLOUDY    34  27  75 E14       29.91R WCI  24
MCGREGOR       CLOUDY    36  32  87 E10       29.87F
$$
MNZ071>073-080-081-089-090-097-098-250600-
   Southwest Minnesota

CITY           SKY/WX    TMP DP  RH WIND       PRES   REMARKS
MONTEVIDEO     CLOUDY    45  41  87 SE14      29.74R
GRANITE FALLS  CLOUDY    44  40  83 E12       29.74S
CANBY          CLOUDY    45  43  93 E9        29.72R
MARSHALL       CLOUDY    45  39  81 E16       29.70S
REDWOOD FALLS  CLOUDY    45  41  86 E10       29.72S
OLIVIA         CLOUDY    41  36  81 E13       29.73F
PIPESTONE      CLOUDY    48  45  87 E8        29.66R
WINDOM         CLOUDY    46  43  87 E14       29.70R
WORTHINGTON    CLOUDY    45  41  87 E14       29.68R
JACKSON        CLOUDY    45  41  87 E16       29.69S
TRACY          CLOUDY    46  43  90 SE12      29.71R
SLAYTON        CLOUDY    45  44  96 E16       29.69R
$$
MNZ065>067-074>077-082>085-091>093-250600-
   South Central Minnesota

CITY           SKY/WX    TMP DP  RH WIND       PRES   REMARKS
MANKATO        CLOUDY    45  37  76 E14       29.76R
NEW ULM        CLOUDY    45  41  87 E13G18    29.73S
ST JAMES       CLOUDY    46  41  81 E14G20    29.73R
FAIRMONT       CLOUDY    45  19  36 E13G18    29.70S
GLENCOE        CLOUDY    45  42  90 E13G18    29.77R
FARIBAULT      CLOUDY    45  41  87 E9        29.78F
OWATONNA       CLOUDY    43  39  87 E16G22    29.77R
ALBERT LEA     CLOUDY    45  41  87 SE13G18   29.74S
$$
MNZ078>079-086>088-094>096-250600-
   Southeast Minnesota

CITY           SKY/WX    TMP DP  RH WIND       PRES   REMARKS
ROCHESTER      CLOUDY    42  38  85 E16       29.78F
RED WING       CLOUDY    45  39  81 E13G18    29.82F
STANTON        CLOUDY    44  40  86 E14       29.78F
DODGE CENTER   CLOUDY    43  41  93 E16G24    29.77F
AUSTIN         CLOUDY    43  39  87 SE20      29.74F
PRESTON        CLOUDY    41  37  85 SE12      29.79F
$$
ABBREVIATIONS USED IN REMARKS
   TC - TEMPERATURES IN CELSIUS
  WCI - WIND CHILL INDEX
   HX - HEAT INDEX
  VSB - VISIBILITY
$$


USA.gov is the U.S. government's official web portal to all federal, state and local government web resources and services.